Погода в Избербаше

Россия / Республика Дагестан     42°33′54″N   47°52′15″E
темп.,
°C
ветер,
м/с
пор.,
м/с
влажн.,
%
обл.,
%
осадки,
мм/ч
давл.,
гПа
погр.,
м
24 октября, вс
вс2400:00+12ю01750 0.0 101815
03:00+11зсз11690 0.0 101815
06:00+10сз11690 0.0 101918
09:00+14ссв11540 0.0 1019228
12:00+16ссв33490 0.0 1018525
15:00+15св22575 0.0 1018434
18:00+12ю117595 0.0 101815
21:00+12з117227 0.0 101613
25 октября, пн
пн2500:00+12зсз1169100 0.0 101514
03:00+12сз226893 0.0 101522
06:00+11сз3370100 0.0 101738
09:00+13с4657100 0.0 1019484
12:00+10ссз111271100 0.0 1021659
15:00+6ссз101387100 0.1 1024862
18:00+5ссз61089100 1.9 1027662
21:00+5ссз61084100 4.6 1029844
26 октября, вт
вт2600:00+5ссз61088100 1.0 1030777
03:00+5сз4785100 1.2 1030553
06:00+6сз357665 0.1 1031330
09:00+7ссз557072 0.1 1032854
12:00+7с5568100 0.1 10311007
15:00+6с4474100 0.1 1031862
18:00+6зсз2371100 0.1 1033499
21:00+6ссв227263 0.0 1032171
27 октября, ср
ср2700:00+6св117485 0.0 1032273
03:00+6ююв117578 0.0 1031164
06:00+5ю227851 0.0 103297
09:00+7юв34657 0.0 1032664
12:00+10юв666439 0.0 10291017
15:00+9юв776840 0.0 1028858
18:00+7ююв468213 0.0 1028235
21:00+6ю46810 0.0 1028187
28 октября, чт
чт2800:00+6ю46760 0.0 1026123
03:00+6ю45673 0.0 102582
06:00+7юз226445 0.0 102429
09:00+10с237035 0.0 1025565
12:00+13с66640 0.0 1023759
15:00+13с67640 0.0 1022682
18:00+10сз45790 0.0 1024126
21:00+9з22670 0.0 102428